Showing default

INMARSAT GX5, 44801

Orbit data source: Space-Track

INMARSAT GX5, 44801 is a payload satellite owned by INMARSAT-Ltd (UK) in GEO that was launched on Tue, 26 Nov 2019 UTC via an ARIANE 5ECA launch vehicle from the French Guiana (FRGUI). Payload-class satellites include a variety of spacecraft equipped with specific instruments for various scientific and technological missions. These include communications satellites like Starlink; space stations such as the ISS; scientific satellites like the Hubble; Earth observation satellites from companies like Planet Labs, Umbra, and HawkEye 360; GPS; miniature CubeSats for education and research; and military/defense satellites.

Not visible in the next 10 days
Identifier
44801, 2019-080B
Orbit
GEO
Country
Flag of IMIM
Related business
Manufacturer
Thales Alenia
Mission
Operational Commercial Communications
Bus & Motor
SPACEBUS 4000B2, S400
Mass
~4,007 kg wet, ~2,200 kg dry
Launch date (UTC)
2019-11-26 (6 years ago)
Launch vehicle
ARIANE 5ECA
Launch site
French Guiana (FRGUI)
Object type
Payload
Rocket body
Debris
Shape & HBR
Box + 2 Pan, Unknown HBR
Radar Cross Section
39.423 m², Large (>1 m²)

Expand to show TLE details & history
Last TLE update: 13 hours ago

TLE from 13 hours ago
0 INMARSAT GX5
1 44801U 19080B   25261.15595387  .00000054  00000-0  00000-0 0  9993
2 44801   0.0572  11.5373 0002365 181.7056 231.2169  1.00271695  4051
Epoch: 2025-09-18T03:44Z
TLE epoch observation values (Epoch: 2025-09-18T03:44:34.414Z)
Latitude
0.00939°
Longitude
10.97532°
Altitude
35,792.348 km
Speed
3.074 km/s
True Right ascension
04h 17m 45s
True Declination
0° 00' 34"
Sunlit
Object was in daylight at epoch
Visualization orbit readout
Latitude
Unknown
Longitude
Unknown
Altitude
Unknown
Speed
Unknown
Apparent Right ascension
Unknown
Apparent Declination
Unknown
Sunlit
N/A
Visualization observer readout
Local Sidereal Time
09:47:10
Azimuth
Unknown
Elevation
Unknown
Doppler factor
Unknown
Orbital elements
Apogee altitude
35,797.663 km
Perigee altitude
35,777.718 km
Semi-major axis
42,165.828 km
Eccentricity
0.00024
Inclination
0.0572°
RAAN
11.5373°
Arg. of periapsis
181.7056°
True anomaly
231.19578°
Mean anomaly
231.2169°
Eccentric anomaly
231.20634°
Mean motion
0.25067 °/min
Orbital period
1,436.15 mins
BSTAR
0
Loading maneuver chart data...
Computing Atmospheric mass density...
Loading historical data...
Loading historical data...
Loading historical data...
Loading historical data...
Loading historical data...
Loading historical data...
Loading historical data...
Other satellites on launch #80 in the year 2019 (2019-11-26 UTC)

Documentation

Showing up to 5 results
|